EW2112 Weather Reports


time (UTC)temp
F
wind
direction
speed
knots
gust
knots
rain 1hr
in
rain 24hr
in
rain mn
in
humidity
%
barometer
mb
20260503190041 60 338 0.0 0.0 0.00 0.00 0.00 93 1011.9
20260503184534 60 338 0.0 0.0 0.00 0.00 0.00 94 1012.0
20260503183034 59 338 0.0 0.0 0.00 0.00 0.00 93 1012.0
20260503181536 59 338 0.0 0.0 0.00 0.00 0.00 93 1011.9
20260503180035 59 338 0.0 0.0 0.00 0.00 0.00 93 1011.9
20260503174532 59 338 0.0 0.0 0.00 0.00 0.00 93 1011.8
20260503173031 59 338 0.0 0.0 0.00 0.00 0.00 93 1011.8
20260503171528 59 338 0.0 0.0 0.00 0.00 0.00 93 1012.0
20260503100109 69 15 0.9 7.0 0.00 0.00 0.00 79 1014.0
20260503081558 71 72 1.7 6.1 0.00 0.00 0.00 73 1013.7
20260503071552 73 28 0.9 5.2 0.00 0.00 0.00 70 1013.5
20260503060110 78 68 2.6 7.8 0.00 0.00 0.00 52 1013.7
20260503054600 79 38 3.5 8.7 0.00 0.00 0.00 51 1013.8
20260503053045 80 65 2.6 9.6 0.00 0.00 0.00 51 1013.8
20260503051542 80 35 4.3 8.7 0.00 0.00 0.00 50 1014.0
20260503050041 81 32 2.6 7.8 0.00 0.00 0.00 51 1014.1
20260503044539 80 28 1.7 8.7 0.00 0.00 0.00 51 1014.1
20260503043037 80 15 4.3 8.7 0.00 0.00 0.00 50 1014.3
20260503041534 79 13 3.5 9.6 0.00 0.00 0.00 52 1014.4
20260503040036 79 11 1.7 7.0 0.00 0.00 0.00 52 1014.6
20260503034529 78 288 0.9 8.7 0.00 0.00 0.00 53 1014.6
20260503033030 78 355 2.6 10.4 0.00 0.00 0.00 54 1014.9
20260503031525 78 319 3.5 7.0 0.00 0.00 0.00 54 1015.1
20260503030026 78 21 2.6 7.0 0.00 0.00 0.00 55 1015.4
20260503024519 77 355 0.9 5.2 0.00 0.00 0.00 57 1015.6
20260503023016 76 268 1.7 5.2 0.00 0.00 0.00 60 1015.9
20260503021515 76 5 2.6 7.0 0.00 0.00 0.00 61 1016.1
20260503020010 76 279 2.6 7.0 0.00 0.00 0.00 62 1016.6
20260503014508 75 314 0.0 4.3 0.00 0.00 0.00 62 1017.0
20260503013006 75 24 1.7 6.1 0.00 0.00 0.00 64 1017.2
20260503011500 74 259 2.6 7.0 0.00 0.00 0.00 64 1017.5
20260503010057 73 333 1.7 7.0 0.00 0.00 0.00 67 1017.8
20260503004555 72 294 1.7 4.3 0.00 0.00 0.00 68 1018.0
20260503003052 72 292 2.6 6.1 0.00 0.00 0.00 69 1018.3
20260503001548 70 305 1.7 7.0 0.00 0.00 0.00 72 1018.3
20260503000047 70 31 2.6 7.0 0.00 0.00 0.00 74 1018.3
20260502234550 69 321 0.0 4.3 0.00 0.00 0.00 77 1018.4
20260502233038 68 30 1.7 5.2 0.00 0.00 0.00 79 1018.6
20260502231535 67 347 1.7 4.3 0.00 0.00 0.00 80 1018.9
20260502230031 65 316 0.9 3.5 0.00 0.00 0.00 85 1018.9
20260502224528 63 360 0.0 0.9 0.00 0.00 0.00 90 1018.9
20260502223024 62 360 0.0 0.9 0.00 0.00 0.00 93 1018.9
20260502221520 61 360 0.0 1.7 0.00 0.00 0.00 95 1018.9
20260502220018 60 9 0.0 0.0 0.00 0.00 0.00 95 1018.8
20260502214532 59 9 0.0 0.0 0.00 0.00 0.00 95 1018.5
20260502213013 58 9 0.0 0.0 0.00 0.00 0.00 94 1018.4
20260502211516 58 9 0.0 0.0 0.00 0.00 0.00 94 1018.3
20260502210020 57 9 0.0 0.0 0.00 0.00 0.00 94 1018.3
20260502204509 57 9 0.0 0.0 0.00 0.00 0.00 94 1018.0
20260502203002 57 69 0.0 0.0 0.00 0.00 0.00 94 1018.0
20260502201502 57 69 0.0 0.9 0.00 0.00 0.00 93 1018.2
20260502200100 57 69 0.0 0.0 0.00 0.00 0.00 93 1018.3
20260502194559 57 69 0.0 0.0 0.00 0.00 0.00 93 1018.1
20260502193059 57 69 0.0 0.0 0.00 0.00 0.00 93 1017.9
20260502191557 58 69 0.0 0.0 0.00 0.00 0.00 93 1017.8